Temperature
9 9 8 7 7 8 8 8 8 7 7 7 6 6 6 6 6 6 6 6 6 6 6 6 6 6 6 6 7 7 7 7 9 10 10 11 11 12 12 13 13 14 14
9 9 7 7 8 8 8 8 8 7 7 6 6 6 6 5 5 5 5 5 5 5 5 5 5 5 6 6 6 6 6 8 9 10 10 10 10 11 11 12 12 13 13
9 9 8 8 8 8 8 8 7 7 6 6 6 5 5 5 5 5 4 4 4 4 4 4 5 5 5 5 5 5 6 7 8 9 9 10 10 10 10 10 11 11 12
9 9 8 8 8 8 8 7 7 6 6 6 5 5 5 5 5 4 4 4 4 4 4 4 4 4 5 5 5 5 5 7 8 8 8 9 9 8 8 8 9 9 10
8 8 8 8 8 8 7 7 7 6 6 6 5 5 5 4 4 4 4 4 3 3 3 3 4 4 4 5 5 5 5 7 8 8 8 8 8 7 6 6 6 7 8
8 8 8 8 7 7 7 7 7 6 6 5 5 5 5 4 4 4 3 3 3 3 3 3 3 3 4 4 4 4 5 7 8 8 8 7 7 6 4 4 4 5 6
8 8 8 7 7 7 7 7 6 6 6 5 5 5 5 5 4 4 3 3 3 3 3 3 3 3 3 3 3 4 5 6 7 7 7 7 7 5 4 3 3 3 4
8 8 8 7 7 7 7 7 7 6 6 6 6 6 5 5 5 4 4 3 3 3 3 3 3 3 3 3 3 4 4 5 5 5 6 6 5 4 3 2 2 2 3
8 8 8 8 7 7 7 7 7 6 6 6 6 6 5 5 5 4 4 3 3 3 3 3 3 3 4 4 3 3 3 3 3 4 4 4 4 3 3 2 2 2 2
7 7 7 7 7 7 7 7 7 6 6 6 6 5 5 5 4 4 4 4 3 3 3 3 3 3 3 3 3 2 2 2 2 2 2 3 2 2 1 1 1 1 1
7 7 7 7 7 7 7 7 7 6 6 6 5 5 5 4 4 4 4 3 3 3 3 3 3 3 2 2 2 1 1 1 1 1 1 1 0 -0 -0 -0 0 0 0
9 8 7 7 7 7 7 7 6 6 6 6 5 5 4 4 4 4 3 3 3 3 2 2 2 2 1 1 0 -0 -1 -1 -1 -1 -1 -1 -2 -2 -2 -2 -1 -1 -1
9 8 8 7 7 7 7 6 6 6 6 5 5 5 4 4 4 3 3 3 3 2 2 2 1 0 -0 -1 -1 -2 -2 -3 -3 -3 -3 -3 -3 -3 -3 -3 -3 -2 -2
9 9 8 7 7 7 7 6 6 6 6 5 5 5 4 4 3 3 3 2 2 2 1 1 0 -1 -1 -2 -3 -3 -4 -4 -4 -5 -4 -4 -5 -5 -4 -4 -4 -3 -3
10 9 8 7 7 7 7 6 6 6 5 5 5 4 4 3 3 3 2 2 2 1 0 -0 -1 -2 -2 -3 -4 -4 -5 -5 -5 -5 -5 -5 -5 -6 -6 -6 -5 -5 -4
10 9 8 8 7 7 6 6 6 5 5 5 5 4 4 3 3 2 2 1 1 0 -0 -1 -2 -3 -3 -4 -4 -5 -5 -5 -6 -6 -6 -6 -6 -6 -6 -7 -6 -6 -5
11 10 9 8 7 7 6 6 6 5 5 5 4 4 3 3 2 2 1 1 0 -0 -1 -2 -3 -3 -4 -5 -5 -5 -5 -5 -6 -6 -6 -6 -6 -6 -7 -7 -7 -7 -6
11 10 9 8 7 7 6 6 5 5 5 5 4 4 3 3 2 2 1 0 -0 -1 -2 -2 -3 -4 -4 -5 -5 -5 -5 -5 -6 -6 -6 -7 -7 -7 -7 -7 -8 -8 -7
11 10 9 8 8 7 6 6 5 5 5 4 4 4 3 2 2 1 1 0 -0 -1 -2 -3 -3 -4 -5 -5 -6 -5 -5 -5 -6 -6 -6 -7 -7 -7 -8 -8 -8 -8 -8
11 10 9 8 8 7 6 5 5 5 5 4 4 4 3 2 2 1 1 -0 -1 -1 -2 -3 -3 -4 -5 -6 -6 -6 -5 -5 -5 -6 -7 -7 -7 -8 -8 -8 -8 -8 -8
11 10 9 8 8 7 6 6 5 5 5 4 4 3 3 2 2 1 0 -0 -1 -2 -2 -3 -4 -4 -4 -6 -7 -6 -5 -5 -6 -7 -7 -7 -8 -8 -8 -8 -8 -9 -9
12 11 10 10 9 8 7 6 6 5 5 4 3 3 3 2 2 1 0 -0 -1 -2 -2 -3 -4 -5 -5 -6 -8 -9 -9 -8 -8 -8 -8 -8 -8 -8 -8 -9 -9 -9 -9
14 13 13 12 10 9 8 6 5 5 4 4 4 4 3 2 2 1 0 -0 -1 -2 -2 -3 -4 -5 -6 -6 -8 -9 -10 -10 -10 -9 -8 -9 -9 -9 -9 -9 -9 -9 -9
16 15 14 13 12 10 8 7 6 6 6 6 5 4 3 2 2 1 0 -0 -1 -2 -3 -3 -4 -5 -6 -6 -7 -8 -9 -10 -11 -11 -10 -9 -10 -10 -9 -9 -9 -9 -9
17 16 15 13 12 11 10 8 7 6 6 5 4 3 3 2 2 1 0 -0 -1 -2 -3 -4 -4 -5 -6 -7 -8 -8 -9 -10 -10 -12 -11 -10 -10 -10 -10 -10 -10 -10 -9
17 16 15 14 13 12 11 10 8 7 6 5 4 3 3 2 2 1 0 -1 -1 -2 -3 -4 -5 -5 -6 -7 -8 -8 -9 -10 -10 -11 -12 -11 -11 -10 -10 -10 -10 -10 -10
Wind_Speed
4 5 7 9 8 8 9 9 11 12 13 14 14 15 17 18 19 20 21 22 23 24 24 25 26 26 27 28 28 28 28 29 29 29 29 30 30 30 30 30 29 25 29
9 7 11 10 9 9 9 9 10 11 12 13 14 15 16 17 18 19 20 21 22 23 24 24 25 26 27 27 27 27 28 28 29 28 28 27 29 29 30 30 29 27 29
10 9 11 11 10 9 9 9 9 10 11 12 13 14 15 16 17 18 19 20 21 22 22 23 24 25 25 26 26 27 27 27 28 28 26 24 25 26 28 29 29 29 29
12 12 10 12 10 9 9 8 8 9 10 11 12 13 14 15 16 17 18 19 19 20 21 22 23 24 24 25 26 26 27 27 27 26 23 23 23 24 27 28 28 29 29
12 12 10 12 11 9 8 8 8 8 9 10 11 12 13 14 15 16 17 17 18 19 20 21 22 23 24 24 25 26 26 26 26 24 21 22 22 24 28 27 27 28 28
11 11 10 13 11 9 8 8 7 8 9 10 11 12 12 13 14 15 15 16 17 17 18 19 20 21 22 23 24 25 26 26 24 22 21 21 20 25 28 28 27 27 28
10 10 9 13 11 10 8 8 7 7 8 9 10 11 12 12 13 14 14 15 15 16 17 18 19 20 21 22 23 24 25 25 23 21 21 21 22 27 28 28 28 28 28
13 10 8 13 11 10 9 8 7 7 8 8 9 10 11 11 12 13 13 14 14 15 16 17 18 19 20 21 22 23 24 24 23 21 21 21 25 28 29 29 28 28 28
13 12 9 10 10 10 8 8 7 7 7 8 9 10 10 11 11 12 12 13 13 14 15 16 17 18 19 20 21 22 23 23 23 20 21 20 26 29 29 29 29 29 29
10 11 11 11 11 9 8 8 8 7 7 7 8 9 10 11 11 11 11 12 12 13 14 15 17 18 18 20 21 21 21 21 22 20 19 20 27 29 29 29 30 29 29
7 8 12 12 12 11 10 8 8 8 8 8 8 8 9 10 10 10 10 11 11 12 13 15 16 17 18 19 20 21 19 19 20 18 18 23 26 27 28 29 30 30 30
11 8 11 13 14 13 11 10 10 9 9 9 8 9 9 9 8 8 9 9 10 11 13 14 15 17 17 18 18 18 18 19 18 17 18 24 25 27 28 28 29 30 31
11 10 11 15 16 15 13 12 11 10 10 9 9 9 8 7 6 7 7 8 9 10 12 13 15 15 15 15 15 16 17 17 17 16 18 22 24 26 27 28 29 29 30
10 11 10 16 16 16 15 13 13 12 11 11 10 10 8 7 5 4 4 5 6 8 9 10 11 12 13 13 14 14 15 16 16 16 17 21 23 25 27 28 29 30 31
14 14 12 16 17 17 15 14 13 14 13 13 12 12 10 8 6 4 2 2 3 5 6 7 9 10 10 12 12 12 15 17 17 17 17 20 22 24 25 27 29 30 31
17 16 13 15 18 18 15 14 15 15 15 14 14 14 12 10 8 6 3 1 2 3 5 6 8 9 10 11 12 14 16 17 17 18 18 19 20 22 24 27 29 30 32
16 15 15 15 18 17 16 16 15 17 16 15 15 15 14 12 10 8 5 4 5 5 6 7 8 8 8 9 10 13 14 16 16 18 19 18 18 20 23 27 28 30 32
14 15 16 15 16 17 16 17 16 17 17 16 17 16 16 15 12 10 8 7 7 7 6 6 7 4 5 5 6 9 12 14 16 18 18 17 18 18 21 26 28 30 32
17 16 17 15 15 16 17 16 16 16 16 17 17 17 17 16 15 12 10 10 9 7 7 7 4 3 5 6 7 7 9 11 15 17 15 17 17 18 20 23 27 30 31
15 16 17 17 14 13 12 9 8 9 12 15 16 17 18 17 16 14 11 11 10 7 5 5 5 4 5 6 8 9 8 11 13 12 13 14 16 18 20 21 23 25 29
15 17 18 18 15 12 7 6 6 6 6 7 15 18 19 18 17 15 11 11 10 6 6 5 4 5 4 3 4 6 7 8 9 7 10 11 14 17 19 20 22 22 23
19 19 19 20 19 17 13 8 5 4 5 7 12 16 19 18 18 15 14 11 10 6 6 6 5 3 4 2 2 5 5 4 3 7 7 7 10 14 16 20 21 23 23
21 23 21 22 20 18 14 7 4 3 2 5 7 8 16 19 18 17 15 13 11 8 6 7 6 6 5 3 4 3 3 5 8 5 7 8 8 7 11 17 20 22 24
23 20 20 20 20 18 17 15 13 12 11 11 8 8 12 18 18 18 16 15 13 10 7 7 7 6 5 5 4 6 7 6 5 8 6 5 8 10 10 14 18 22 24
18 17 18 18 19 19 20 21 19 16 11 6 6 8 9 12 16 17 17 15 13 11 9 9 6 7 6 6 5 5 6 7 8 8 14 13 9 7 8 9 14 18 23
13 15 16 18 20 19 21 21 21 20 14 10 10 10 9 7 9 14 16 15 14 11 10 10 9 8 8 8 8 7 6 6 7 8 11 16 17 12 9 8 11 15 20
Wind_Direction
195 188 153 125 111 96 81 70 62 56 50 46 43 42 40 39 37 34 33 31 30 29 28 28 27 27 27 26 25 24 25 26 24 21 16 10 6 5 6 6 4 0 359
160 163 144 130 118 103 89 77 67 60 53 48 45 43 41 40 37 34 33 31 30 28 28 27 26 26 25 24 24 23 24 25 22 20 16 10 3 2 4 3 2 359 358
135 130 134 134 123 111 97 84 74 65 57 51 48 45 42 41 38 34 33 31 30 29 28 27 26 25 24 23 22 23 24 25 22 19 15 7 359 360 1 1 359 357 355
132 125 131 137 129 119 106 94 82 72 63 56 52 47 44 41 39 34 33 31 29 28 27 26 25 24 23 22 21 21 22 23 22 18 12 3 357 357 359 359 357 355 352
135 134 147 141 135 126 115 102 89 79 69 61 56 49 45 43 40 34 33 31 29 28 27 26 24 23 22 20 19 19 19 20 20 16 9 0 353 354 357 357 355 352 349
141 144 158 147 142 134 124 112 98 85 75 67 60 53 47 44 41 34 33 31 29 28 27 25 24 22 20 18 17 17 17 18 19 11 5 359 348 351 354 353 352 349 346
149 150 163 154 149 142 133 122 109 95 84 73 66 58 50 45 42 35 32 31 29 28 26 25 23 22 20 18 16 16 16 16 15 7 1 355 344 352 351 351 348 346 344
152 148 153 161 155 150 143 134 121 108 95 83 74 66 55 48 43 37 32 31 29 28 26 24 22 21 19 17 16 15 14 15 11 4 357 350 346 349 348 347 345 342 340
155 148 139 137 147 151 149 145 134 120 107 94 84 75 62 53 45 39 31 30 29 28 25 23 22 20 19 16 14 13 12 11 9 1 355 345 343 344 344 343 341 339 337
163 158 152 145 145 142 140 149 143 131 118 104 94 85 72 61 51 41 30 29 28 27 24 23 21 20 19 15 11 10 10 8 2 357 349 339 340 340 339 339 337 335 333
182 176 166 160 159 157 149 146 144 136 127 115 105 97 88 80 65 46 32 30 28 27 24 22 20 19 18 13 8 6 6 0 355 350 342 336 336 336 335 334 333 331 329
191 191 183 175 171 167 161 156 149 142 138 133 128 120 107 93 78 59 42 35 31 29 25 22 20 18 15 8 3 359 354 348 346 341 334 331 331 331 330 330 329 327 325
190 190 188 185 180 175 169 166 163 159 154 153 151 144 131 113 91 72 56 43 38 31 27 19 17 12 5 357 349 342 337 335 329 326 323 325 326 326 326 325 325 324 322
187 196 188 188 185 184 179 176 175 173 172 172 171 167 156 142 124 97 67 43 33 25 17 11 3 354 348 341 332 322 318 316 312 310 312 320 322 322 322 321 321 320 319
196 196 191 189 189 187 183 182 185 185 185 185 183 184 178 166 161 153 124 40 17 7 359 348 339 331 325 319 313 306 303 302 300 299 300 312 318 319 319 318 317 316 315
201 199 192 192 194 189 187 190 190 191 191 190 192 193 191 184 178 177 186 235 298 315 316 312 305 301 298 296 291 292 292 292 290 293 296 302 312 317 317 316 315 313 312
200 196 194 196 195 193 193 195 195 194 192 194 198 199 198 196 192 190 198 226 253 272 284 288 289 286 282 283 281 285 285 282 284 290 294 294 296 308 314 315 313 311 310
196 196 198 198 195 198 197 196 195 195 195 198 201 201 203 203 202 198 205 227 246 254 262 268 268 266 269 273 273 277 279 279 282 286 287 287 291 297 304 310 311 311 310
199 197 198 199 194 197 197 196 196 195 198 201 201 203 206 206 206 204 211 228 239 241 246 257 258 241 265 276 277 272 267 271 277 281 280 284 288 293 297 304 308 310 308
200 200 201 201 197 190 186 184 190 199 206 205 203 205 206 207 208 208 214 227 231 229 237 241 252 253 250 267 286 286 272 269 269 266 269 279 286 292 297 298 301 302 304
200 202 203 202 197 185 179 183 188 207 204 204 208 208 206 206 206 206 210 218 221 219 226 231 241 265 265 258 282 290 276 260 252 252 258 270 280 287 292 295 298 296 296
206 206 206 206 199 196 196 182 177 176 192 203 205 206 206 205 205 207 209 212 217 219 227 230 221 244 262 269 276 310 315 298 255 255 254 264 273 282 289 297 297 294 292
210 209 208 207 203 199 190 169 150 140 150 179 200 205 206 204 205 206 208 211 215 213 222 228 219 223 247 254 209 232 286 297 309 262 246 260 264 273 283 291 293 295 296
215 210 209 205 203 198 189 190 190 198 205 203 195 196 197 201 204 207 210 212 214 216 218 228 225 217 226 253 238 222 224 240 284 302 286 260 263 278 280 291 294 294 293
214 207 207 205 205 199 197 200 203 211 211 185 179 187 195 201 205 208 211 211 214 217 221 225 228 225 222 236 239 235 242 246 238 263 293 298 290 271 273 278 286 289 290
207 204 203 204 208 202 201 204 207 211 202 188 191 196 200 201 205 210 212 212 215 218 221 225 227 229 232 236 243 240 240 245 251 255 277 292 297 294 279 276 280 283 285
Height
1587 1590 1592 1593 1593 1593 1593 1593 1592 1591 1590 1589 1588 1587 1586 1584 1582 1580 1579 1577 1575 1574 1572 1570 1568 1567 1565 1563 1561 1559 1557 1555 1554 1553 1554 1554 1554 1553 1552 1552 1551 1552 1552
1585 1588 1590 1591 1592 1592 1592 1592 1591 1591 1590 1589 1588 1587 1585 1584 1582 1580 1579 1577 1575 1574 1572 1570 1568 1566 1564 1562 1560 1558 1557 1554 1553 1552 1552 1552 1552 1552 1551 1550 1550 1549 1549
1584 1587 1589 1590 1591 1592 1592 1591 1591 1590 1590 1589 1587 1586 1585 1583 1582 1580 1578 1577 1575 1573 1572 1570 1568 1565 1563 1561 1559 1558 1555 1552 1551 1551 1550 1550 1549 1549 1549 1549 1548 1548 1547
1584 1586 1588 1589 1590 1591 1591 1591 1590 1590 1589 1588 1587 1585 1584 1583 1581 1580 1578 1576 1575 1573 1571 1569 1567 1565 1563 1561 1559 1557 1554 1551 1549 1549 1548 1547 1547 1547 1547 1546 1546 1545 1545
1582 1585 1587 1588 1589 1589 1590 1589 1589 1589 1588 1587 1586 1585 1583 1582 1580 1579 1577 1576 1574 1572 1571 1569 1567 1565 1562 1560 1558 1556 1553 1550 1548 1547 1546 1545 1544 1544 1544 1543 1543 1543 1542
1581 1583 1585 1586 1587 1588 1588 1588 1588 1588 1587 1586 1585 1583 1582 1581 1579 1578 1576 1575 1573 1571 1570 1568 1566 1564 1562 1560 1558 1555 1552 1550 1548 1547 1545 1543 1542 1541 1541 1540 1540 1539 1539
1580 1582 1584 1585 1586 1587 1587 1587 1587 1586 1586 1584 1583 1582 1581 1580 1578 1577 1575 1574 1572 1570 1569 1567 1565 1563 1561 1559 1557 1554 1552 1550 1548 1546 1545 1543 1541 1540 1539 1538 1537 1536 1535
1579 1580 1582 1583 1584 1585 1585 1585 1585 1585 1584 1583 1582 1581 1580 1578 1577 1576 1574 1573 1571 1569 1567 1565 1564 1562 1560 1558 1556 1554 1551 1549 1548 1546 1544 1542 1540 1538 1537 1535 1534 1532 1531
1577 1579 1580 1581 1582 1583 1584 1584 1584 1583 1582 1581 1580 1579 1578 1577 1576 1574 1573 1571 1569 1568 1566 1564 1562 1560 1559 1557 1555 1552 1550 1548 1546 1544 1543 1541 1539 1537 1535 1533 1531 1529 1527
1574 1576 1578 1579 1580 1581 1582 1582 1582 1581 1581 1580 1579 1578 1577 1576 1574 1573 1571 1570 1568 1566 1565 1563 1561 1559 1557 1556 1553 1551 1549 1547 1545 1543 1540 1538 1536 1534 1533 1530 1528 1526 1524
1570 1572 1575 1576 1578 1579 1580 1580 1580 1579 1579 1578 1577 1576 1575 1574 1573 1571 1569 1568 1566 1564 1563 1561 1559 1557 1556 1554 1552 1549 1547 1544 1542 1540 1538 1535 1533 1531 1530 1527 1525 1522 1520
1565 1568 1571 1573 1575 1576 1577 1577 1577 1577 1577 1576 1575 1574 1573 1571 1570 1569 1567 1565 1564 1562 1561 1559 1557 1555 1553 1551 1549 1547 1544 1541 1539 1536 1534 1532 1529 1528 1526 1524 1521 1519 1516
1562 1565 1567 1570 1571 1573 1574 1574 1575 1575 1574 1573 1572 1571 1570 1569 1567 1566 1564 1563 1561 1560 1558 1556 1554 1552 1550 1548 1545 1543 1540 1538 1535 1532 1530 1527 1525 1523 1521 1519 1517 1514 1511
1558 1561 1564 1566 1568 1569 1570 1571 1571 1571 1571 1570 1569 1568 1567 1566 1564 1563 1561 1560 1558 1557 1555 1552 1550 1548 1545 1543 1541 1538 1536 1533 1530 1527 1524 1522 1519 1517 1515 1513 1511 1508 1506
1554 1557 1560 1562 1564 1565 1566 1567 1567 1568 1567 1567 1566 1565 1564 1563 1561 1560 1558 1556 1555 1553 1550 1548 1546 1543 1540 1538 1536 1533 1530 1528 1525 1522 1519 1516 1514 1511 1509 1507 1505 1502 1500
1549 1552 1555 1557 1559 1561 1562 1563 1563 1563 1563 1563 1562 1561 1560 1559 1558 1556 1554 1552 1550 1548 1546 1543 1541 1538 1535 1533 1531 1528 1525 1523 1520 1517 1514 1511 1508 1505 1503 1501 1499 1496 1493
1544 1547 1549 1552 1554 1555 1557 1558 1558 1559 1559 1559 1558 1557 1556 1555 1553 1552 1550 1548 1546 1543 1541 1538 1536 1533 1530 1527 1525 1523 1520 1517 1514 1511 1508 1505 1503 1500 1497 1494 1491 1489 1486
1539 1541 1544 1546 1548 1550 1551 1553 1553 1554 1554 1554 1553 1552 1551 1550 1549 1547 1546 1544 1541 1538 1536 1533 1531 1528 1525 1523 1520 1517 1514 1511 1508 1506 1503 1500 1497 1494 1491 1487 1484 1482 1478
1533 1535 1538 1540 1541 1544 1546 1547 1548 1548 1548 1548 1548 1547 1546 1545 1544 1542 1541 1539 1536 1534 1531 1529 1526 1523 1520 1517 1514 1511 1508 1505 1503 1500 1497 1494 1492 1488 1485 1481 1477 1474 1470
1526 1529 1531 1533 1535 1538 1540 1541 1541 1541 1542 1542 1542 1541 1541 1540 1538 1537 1536 1534 1531 1529 1527 1524 1522 1519 1515 1512 1508 1504 1502 1499 1496 1494 1491 1489 1486 1483 1479 1475 1471 1466 1462
1519 1521 1522 1525 1527 1529 1531 1531 1532 1533 1535 1535 1536 1535 1535 1534 1533 1531 1530 1528 1526 1524 1522 1519 1517 1514 1511 1507 1502 1496 1493 1491 1489 1486 1484 1482 1480 1477 1473 1469 1464 1459 1455
1510 1512 1514 1516 1518 1520 1522 1524 1526 1527 1528 1529 1529 1529 1528 1527 1527 1525 1524 1523 1521 1519 1517 1515 1512 1509 1507 1504 1499 1492 1486 1482 1479 1479 1477 1475 1473 1470 1466 1462 1457 1453 1448
1502 1503 1505 1507 1509 1512 1514 1517 1518 1519 1519 1520 1520 1521 1521 1521 1520 1519 1518 1517 1515 1514 1512 1510 1507 1504 1502 1500 1497 1494 1488 1480 1474 1469 1469 1467 1465 1462 1459 1455 1450 1446 1441
1494 1497 1499 1500 1502 1504 1506 1507 1507 1508 1508 1510 1513 1514 1514 1514 1513 1512 1512 1510 1509 1508 1506 1504 1502 1499 1497 1494 1493 1490 1488 1483 1477 1466 1460 1459 1458 1454 1451 1447 1443 1438 1434
1489 1490 1491 1493 1494 1495 1496 1497 1498 1499 1501 1504 1506 1506 1506 1506 1506 1505 1505 1504 1503 1501 1500 1498 1496 1494 1491 1489 1487 1484 1482 1479 1475 1469 1457 1451 1448 1446 1443 1440 1435 1431 1426
1483 1483 1484 1485 1485 1486 1487 1488 1488 1490 1492 1494 1496 1497 1498 1499 1498 1498 1497 1497 1496 1495 1493 1492 1490 1488 1486 1483 1481 1478 1476 1473 1469 1465 1456 1447 1440 1436 1434 1432 1428 1423 1419